Tracking 27126 objects as of 30-Mar-2023
HD Live streaming from Space Station
objects crossing your sky now

STARLINK-4140

Track STARLINK-4140 now!
10-day predictions
STARLINK-4140 is classified as:


NORAD ID: 53259
Int'l Code: 2022-086T
Perigee: 546.1 km
Apogee: 547.6 km
Inclination: 53.2 °
Period: 95.4 minutes
Semi major axis: 6917 km
RCS: Unknown
Launch date: July 24, 2022
Source: United States (US)
Launch site: AIR FORCE EASTERN TEST RANGE (AFETR)
Your satellite tracking list
Your tracking list is empty




NASA's NSSDC Master Catalog

Two Line Element Set (TLE):
1 53259U 22086T   23089.13741597  .00010820  00000-0  69662-3 0  9994
2 53259  53.2178 342.4625 0001134 113.9814 246.1297 15.08853972 38510
Source of the keplerian elements: AFSPC